Time,TemperatureF,DewpointF,PressureIn,WindDirection,WindDirectionDegrees,WindSpeedMPH,WindSpeedGustMPH,Humidity,HourlyPrecipIn,Conditions,Clouds,dailyrainin,SoftwareType,DateUTC
2013-01-18 00:00:00,11.3,8.2,30.78,West,275,2.0,2.0,87,0.00,,,0.00,Wunderground v.1.15,2013-01-18 07:00:00,
2013-01-18 00:05:00,11.7,8.6,30.78,West,275,2.0,2.0,87,0.00,,,0.00,Wunderground v.1.15,2013-01-18 07:05:00,
2013-01-18 00:15:00,10.1,6.2,30.78,West,275,2.0,3.0,84,0.00,,,0.00,Wunderground v.1.15,2013-01-18 07:15:00,
2013-01-18 00:20:00,9.7,5.8,30.78,West,275,2.0,2.0,84,0.00,,,0.00,Wunderground v.1.15,2013-01-18 07:20:00,
2013-01-18 00:25:00,9.0,5.1,30.78,West,275,2.0,2.0,84,0.00,,,0.00,Wunderground v.1.15,2013-01-18 07:25:00,
2013-01-18 00:35:00,9.9,6.6,30.77,West,275,2.0,6.0,86,0.00,,,0.00,Wunderground v.1.15,2013-01-18 07:35:00,
2013-01-18 00:40:00,9.1,5.2,30.77,West,275,2.0,6.0,84,0.00,,,0.00,Wunderground v.1.15,2013-01-18 07:40:00,
2013-01-18 00:50:00,10.2,6.8,30.77,West,275,3.0,3.0,86,0.00,,,0.00,Wunderground v.1.15,2013-01-18 07:50:00,
2013-01-18 00:55:00,9.9,6.3,30.77,West,275,2.0,6.0,85,0.00,,,0.00,Wunderground v.1.15,2013-01-18 07:55:00,
2013-01-18 01:00:00,9.5,5.9,30.77,West,275,2.0,2.0,85,0.00,,,0.00,Wunderground v.1.15,2013-01-18 08:00:00,
2013-01-18 01:05:00,9.3,5.7,30.77,West,275,2.0,6.0,85,0.00,,,0.00,Wunderground v.1.15,2013-01-18 08:05:00,
2013-01-18 01:15:00,8.7,4.9,30.77,West,275,2.0,6.0,84,0.00,,,0.00,Wunderground v.1.15,2013-01-18 08:15:00,
2013-01-18 01:20:00,8.4,4.8,30.77,West,275,1.0,6.0,85,0.00,,,0.00,Wunderground v.1.15,2013-01-18 08:20:00,
2013-01-18 01:30:00,9.3,6.0,30.77,West,275,2.0,6.0,86,0.00,,,0.00,Wunderground v.1.15,2013-01-18 08:30:00,
2013-01-18 01:35:00,9.0,5.4,30.77,West,275,2.0,6.0,85,0.00,,,0.00,Wunderground v.1.15,2013-01-18 08:35:00,
2013-01-18 01:40:00,9.4,6.1,30.77,West,275,2.0,2.0,86,0.00,,,0.00,Wunderground v.1.15,2013-01-18 08:40:00,
2013-01-18 01:45:00,8.8,5.2,30.77,West,275,2.0,3.0,85,0.00,,,0.00,Wunderground v.1.15,2013-01-18 08:45:00,
2013-01-18 01:55:00,9.0,5.7,30.77,West,275,2.0,6.0,86,0.00,,,0.00,Wunderground v.1.15,2013-01-18 08:55:00,
2013-01-18 02:00:00,8.4,4.8,30.76,West,275,2.0,6.0,85,0.00,,,0.00,Wunderground v.1.15,2013-01-18 09:00:00,
2013-01-18 02:05:00,7.8,4.0,30.77,West,275,2.0,6.0,84,0.00,,,0.00,Wunderground v.1.15,2013-01-18 09:05:00,
2013-01-18 02:15:00,7.4,3.6,30.76,West,275,1.0,6.0,84,0.00,,,0.00,Wunderground v.1.15,2013-01-18 09:15:00,
2013-01-18 02:20:00,7.9,4.6,30.76,West,275,2.0,6.0,86,0.00,,,0.00,Wunderground v.1.15,2013-01-18 09:20:00,
2013-01-18 02:25:00,8.3,5.0,30.76,West,275,2.0,6.0,86,0.00,,,0.00,Wunderground v.1.15,2013-01-18 09:25:00,
2013-01-18 02:35:00,8.4,5.1,30.76,West,275,2.0,6.0,86,0.00,,,0.00,Wunderground v.1.15,2013-01-18 09:35:00,
2013-01-18 02:40:00,8.3,5.0,30.76,West,275,2.0,2.0,86,0.00,,,0.00,Wunderground v.1.15,2013-01-18 09:40:00,
2013-01-18 02:45:00,7.8,4.2,30.76,West,275,1.0,6.0,85,0.00,,,0.00,Wunderground v.1.15,2013-01-18 09:45:00,
2013-01-18 02:55:00,8.1,4.8,30.75,West,275,2.0,6.0,86,0.00,,,0.00,Wunderground v.1.15,2013-01-18 09:55:00,
2013-01-18 03:00:00,8.6,5.5,30.75,West,275,1.0,6.0,87,0.00,,,0.00,Wunderground v.1.15,2013-01-18 10:00:00,
2013-01-18 03:05:00,8.0,4.7,30.75,West,275,1.0,6.0,86,0.00,,,0.00,Wunderground v.1.15,2013-01-18 10:05:00,
2013-01-18 03:10:00,7.7,4.1,30.75,West,275,2.0,2.0,85,0.00,,,0.00,Wunderground v.1.15,2013-01-18 10:10:00,
2013-01-18 03:20:00,6.9,3.3,30.75,West,275,1.0,6.0,85,0.00,,,0.00,Wunderground v.1.15,2013-01-18 10:20:00,
2013-01-18 03:25:00,7.3,4.0,30.75,West,275,2.0,6.0,86,0.00,,,0.00,Wunderground v.1.15,2013-01-18 10:25:00,
2013-01-18 03:30:00,7.2,3.9,30.75,West,275,1.0,6.0,86,0.00,,,0.00,Wunderground v.1.15,2013-01-18 10:30:00,
2013-01-18 03:35:00,6.7,3.1,30.75,West,275,1.0,6.0,85,0.00,,,0.00,Wunderground v.1.15,2013-01-18 10:35:00,
2013-01-18 03:45:00,7.1,3.8,30.75,West,275,1.0,6.0,86,0.00,,,0.00,Wunderground v.1.15,2013-01-18 10:45:00,
2013-01-18 03:50:00,7.3,4.0,30.74,West,275,2.0,6.0,86,0.00,,,0.00,Wunderground v.1.15,2013-01-18 10:50:00,
2013-01-18 04:00:00,7.0,3.7,30.74,West,275,1.0,6.0,86,0.00,,,0.00,Wunderground v.1.15,2013-01-18 11:00:00,
2013-01-18 04:05:00,6.2,2.7,30.74,West,275,2.0,6.0,85,0.00,,,0.00,Wunderground v.1.15,2013-01-18 11:05:00,
2013-01-18 04:10:00,7.4,4.3,30.73,West,275,2.0,6.0,87,0.00,,,0.00,Wunderground v.1.15,2013-01-18 11:10:00,
2013-01-18 04:15:00,7.3,4.0,30.74,West,275,1.0,6.0,86,0.00,,,0.00,Wunderground v.1.15,2013-01-18 11:15:00,
2013-01-18 04:25:00,7.2,4.1,30.73,West,275,1.0,6.0,87,0.00,,,0.00,Wunderground v.1.15,2013-01-18 11:25:00,
2013-01-18 04:30:00,7.0,3.7,30.73,West,275,2.0,2.0,86,0.00,,,0.00,Wunderground v.1.15,2013-01-18 11:30:00,
2013-01-18 04:40:00,6.7,3.4,30.72,West,275,1.0,6.0,86,0.00,,,0.00,Wunderground v.1.15,2013-01-18 11:40:00,
2013-01-18 04:45:00,6.7,3.4,30.73,West,275,1.0,6.0,86,0.00,,,0.00,Wunderground v.1.15,2013-01-18 11:45:00,
2013-01-18 04:50:00,6.7,3.4,30.72,West,275,1.0,6.0,86,0.00,,,0.00,Wunderground v.1.15,2013-01-18 11:50:00,
2013-01-18 04:55:00,6.4,3.1,30.72,West,275,2.0,6.0,86,0.00,,,0.00,Wunderground v.1.15,2013-01-18 11:55:00,
2013-01-18 05:05:00,7.8,4.7,30.72,West,275,1.0,6.0,87,0.00,,,0.00,Wunderground v.1.15,2013-01-18 12:05:00,
2013-01-18 05:10:00,7.1,3.8,30.72,West,275,1.0,6.0,86,0.00,,,0.00,Wunderground v.1.15,2013-01-18 12:10:00,
2013-01-18 05:20:00,6.0,2.2,30.72,West,275,1.0,6.0,84,0.00,,,0.00,Wunderground v.1.15,2013-01-18 12:20:00,
2013-01-18 05:25:00,6.4,3.1,30.72,West,275,1.0,6.0,86,0.00,,,0.00,Wunderground v.1.15,2013-01-18 12:25:00,
2013-01-18 05:30:00,6.3,2.8,30.72,West,275,1.0,1.0,85,0.00,,,0.00,Wunderground v.1.15,2013-01-18 12:30:00,
2013-01-18 05:35:00,5.8,2.3,30.72,West,275,1.0,6.0,85,0.00,,,0.00,Wunderground v.1.15,2013-01-18 12:35:00,
2013-01-18 05:45:00,5.4,1.9,30.72,West,275,1.0,6.0,85,0.00,,,0.00,Wunderground v.1.15,2013-01-18 12:45:00,
2013-01-18 05:50:00,4.8,1.0,30.71,West,275,1.0,1.0,84,0.00,,,0.00,Wunderground v.1.15,2013-01-18 12:50:00,
2013-01-18 05:55:00,4.6,0.8,30.71,West,275,1.0,6.0,84,0.00,,,0.00,Wunderground v.1.15,2013-01-18 12:55:00,
2013-01-18 06:00:00,5.0,1.5,30.71,West,275,1.0,6.0,85,0.00,,,0.00,Wunderground v.1.15,2013-01-18 13:00:00,
2013-01-18 06:10:00,4.4,0.9,30.72,West,275,1.0,6.0,85,0.00,,,0.00,Wunderground v.1.15,2013-01-18 13:10:00,
2013-01-18 06:15:00,4.0,0.2,30.71,West,275,1.0,6.0,84,0.00,,,0.00,Wunderground v.1.15,2013-01-18 13:15:00,
2013-01-18 06:25:00,6.0,3.0,30.72,West,275,1.0,6.0,87,0.00,,,0.00,Wunderground v.1.15,2013-01-18 13:25:00,
2013-01-18 06:30:00,5.6,2.3,30.71,West,275,1.0,6.0,86,0.00,,,0.00,Wunderground v.1.15,2013-01-18 13:30:00,
2013-01-18 06:35:00,4.9,1.4,30.72,West,275,1.0,6.0,85,0.00,,,0.00,Wunderground v.1.15,2013-01-18 13:35:00,
2013-01-18 06:40:00,4.8,1.3,30.72,West,275,1.0,6.0,85,0.00,,,0.00,Wunderground v.1.15,2013-01-18 13:40:00,
2013-01-18 06:50:00,5.2,1.9,30.72,West,275,1.0,6.0,86,0.00,,,0.00,Wunderground v.1.15,2013-01-18 13:50:00,
2013-01-18 06:55:00,4.8,1.3,30.71,West,275,1.0,6.0,85,0.00,,,0.00,Wunderground v.1.15,2013-01-18 13:55:00,
2013-01-18 07:05:00,4.0,0.5,30.72,West,275,1.0,6.0,85,0.00,,,0.00,Wunderground v.1.15,2013-01-18 14:05:00,
2013-01-18 07:10:00,3.4,-0.3,30.71,West,275,1.0,6.0,84,0.00,,,0.00,Wunderground v.1.15,2013-01-18 14:10:00,
2013-01-18 07:15:00,4.4,1.1,30.71,West,275,1.0,6.0,86,0.00,,,0.00,Wunderground v.1.15,2013-01-18 14:15:00,
2013-01-18 07:20:00,4.8,1.5,30.72,West,275,1.0,6.0,86,0.00,,,0.00,Wunderground v.1.15,2013-01-18 14:20:00,
2013-01-18 07:30:00,4.9,1.6,30.72,West,275,1.0,6.0,86,0.00,,,0.00,Wunderground v.1.15,2013-01-18 14:30:00,
2013-01-18 07:35:00,5.3,2.0,30.72,West,275,1.0,6.0,86,0.00,,,0.00,Wunderground v.1.15,2013-01-18 14:35:00,
2013-01-18 07:45:00,6.1,3.1,30.73,West,275,1.0,6.0,87,0.00,,,0.00,Wunderground v.1.15,2013-01-18 14:45:00,
2013-01-18 07:50:00,5.6,2.1,30.73,West,275,1.0,6.0,85,0.00,,,0.00,Wunderground v.1.15,2013-01-18 14:50:00,
2013-01-18 07:55:00,6.5,3.2,30.73,West,275,1.0,6.0,86,0.00,,,0.00,Wunderground v.1.15,2013-01-18 14:55:00,
2013-01-18 08:00:00,7.1,3.8,30.73,West,275,0.0,6.0,86,0.00,,,0.00,Wunderground v.1.15,2013-01-18 15:00:00,
2013-01-18 08:10:00,7.7,4.1,30.74,West,275,0.0,6.0,85,0.00,,,0.00,Wunderground v.1.15,2013-01-18 15:10:00,
2013-01-18 08:15:00,8.4,5.1,30.74,West,275,0.0,6.0,86,0.00,,,0.00,Wunderground v.1.15,2013-01-18 15:15:00,
2013-01-18 08:20:00,9.0,5.4,30.74,West,275,0.0,6.0,85,0.00,,,0.00,Wunderground v.1.15,2013-01-18 15:20:00,
2013-01-18 08:30:00,10.8,7.4,30.74,West,275,0.0,6.0,86,0.00,,,0.00,Wunderground v.1.15,2013-01-18 15:30:00,
2013-01-18 08:35:00,11.9,8.8,30.74,West,275,0.0,6.0,87,0.00,,,0.00,Wunderground v.1.15,2013-01-18 15:35:00,
2013-01-18 08:40:00,12.3,8.7,30.74,West,275,0.0,6.0,85,0.00,,,0.00,Wunderground v.1.15,2013-01-18 15:40:00,
2013-01-18 08:50:00,13.3,9.9,30.74,West,275,0.0,6.0,86,0.00,,,0.00,Wunderground v.1.15,2013-01-18 15:50:00,
2013-01-18 08:55:00,14.0,10.3,30.74,West,275,0.0,6.0,85,0.00,,,0.00,Wunderground v.1.15,2013-01-18 15:55:00,
2013-01-18 09:00:00,14.3,10.4,30.74,West,275,0.0,6.0,84,0.00,,,0.00,Wunderground v.1.15,2013-01-18 16:00:00,
2013-01-18 09:05:00,14.7,11.0,30.74,West,275,0.0,6.0,85,0.00,,,0.00,Wunderground v.1.15,2013-01-18 16:05:00,
2013-01-18 09:15:00,16.4,12.9,30.75,West,275,0.0,6.0,86,0.00,,,0.00,Wunderground v.1.15,2013-01-18 16:15:00,
2013-01-18 09:20:00,17.3,13.6,30.75,West,275,0.0,6.0,85,0.00,,,0.00,Wunderground v.1.15,2013-01-18 16:20:00,
2013-01-18 09:25:00,17.6,13.6,30.74,West,275,0.0,6.0,84,0.00,,,0.00,Wunderground v.1.15,2013-01-18 16:25:00,
2013-01-18 09:35:00,20.4,16.9,30.74,West,275,0.0,6.0,86,0.00,,,0.00,Wunderground v.1.15,2013-01-18 16:35:00,
2013-01-18 09:40:00,22.5,17.8,30.74,West,275,0.0,6.0,82,0.00,,,0.00,Wunderground v.1.15,2013-01-18 16:40:00,
2013-01-18 09:45:00,24.3,18.4,30.74,West,275,0.0,6.0,78,0.00,,,0.00,Wunderground v.1.15,2013-01-18 16:45:00,
2013-01-18 09:50:00,25.8,18.3,30.74,West,275,0.0,6.0,73,0.00,,,0.00,Wunderground v.1.15,2013-01-18 16:50:00,
2013-01-18 10:00:00,26.9,17.0,30.74,West,275,1.0,1.0,66,0.00,,,0.00,Wunderground v.1.15,2013-01-18 17:00:00,
2013-01-18 10:05:00,27.5,16.9,30.74,West,275,1.0,2.0,64,0.00,,,0.00,Wunderground v.1.15,2013-01-18 17:05:00,
2013-01-18 10:15:00,27.6,16.3,30.74,West,275,3.0,3.0,62,0.00,,,0.00,Wunderground v.1.15,2013-01-18 17:15:00,
2013-01-18 10:20:00,27.9,16.6,30.74,West,275,3.0,3.0,62,0.00,,,0.00,Wunderground v.1.15,2013-01-18 17:20:00,
2013-01-18 10:30:00,28.8,17.0,30.73,West,275,3.0,3.0,61,0.00,,,0.00,Wunderground v.1.15,2013-01-18 17:30:00,
2013-01-18 10:35:00,29.0,16.8,30.73,West,275,3.0,3.0,60,0.00,,,0.00,Wunderground v.1.15,2013-01-18 17:35:00,
2013-01-18 10:40:00,29.4,16.4,30.73,West,275,3.0,3.0,58,0.00,,,0.00,Wunderground v.1.15,2013-01-18 17:40:00,
2013-01-18 10:50:00,30.3,17.3,30.72,West,275,2.0,2.0,58,0.00,,,0.00,Wunderground v.1.15,2013-01-18 17:50:00,
2013-01-18 10:55:00,31.5,17.6,30.72,West,275,2.0,2.0,56,0.00,,,0.00,Wunderground v.1.15,2013-01-18 17:55:00,
2013-01-18 11:00:00,32.4,18.0,30.71,West,275,1.0,2.0,55,0.00,,,0.00,Wunderground v.1.15,2013-01-18 18:00:00,
2013-01-18 11:10:00,33.4,18.1,30.71,West,275,1.0,1.0,53,0.00,,,0.00,Wunderground v.1.15,2013-01-18 18:10:00,
2013-01-18 11:15:00,34.1,17.8,30.70,West,275,1.0,1.0,51,0.00,,,0.00,Wunderground v.1.15,2013-01-18 18:15:00,
2013-01-18 11:20:00,34.5,18.2,30.70,West,275,1.0,1.0,51,0.00,,,0.00,Wunderground v.1.15,2013-01-18 18:20:00,
2013-01-18 11:30:00,37.3,20.3,30.69,WNW,287,1.0,6.0,50,0.00,,,0.00,Wunderground v.1.15,2013-01-18 18:30:00,
2013-01-18 11:35:00,37.6,19.7,30.69,WSW,238,3.0,6.0,48,0.00,,,0.00,Wunderground v.1.15,2013-01-18 18:35:00,
2013-01-18 11:40:00,37.0,19.1,30.69,WSW,254,4.0,5.0,48,0.00,,,0.00,Wunderground v.1.15,2013-01-18 18:40:00,
2013-01-18 11:55:00,35.0,17.7,30.67,West,260,9.0,11.0,49,0.00,,,0.00,Wunderground v.1.15,2013-01-18 18:55:00,
2013-01-18 12:00:00,35.0,18.2,30.67,West,277,9.0,9.0,50,0.00,,,0.00,Wunderground v.1.15,2013-01-18 19:00:00,
2013-01-18 12:10:00,35.4,18.6,30.66,West,259,6.0,13.0,50,0.00,,,0.00,Wunderground v.1.15,2013-01-18 19:10:00,
2013-01-18 12:15:00,35.4,19.0,30.66,WNW,284,6.0,13.0,51,0.00,,,0.00,Wunderground v.1.15,2013-01-18 19:15:00,
2013-01-18 12:20:00,35.4,18.6,30.65,WNW,283,6.0,6.0,50,0.00,,,0.00,Wunderground v.1.15,2013-01-18 19:20:00,
2013-01-18 12:25:00,35.1,17.8,30.65,WNW,290,7.0,7.0,49,0.00,,,0.00,Wunderground v.1.15,2013-01-18 19:25:00,
2013-01-18 12:35:00,35.0,19.1,30.64,WNW,291,6.0,7.0,52,0.00,,,0.00,Wunderground v.1.15,2013-01-18 19:35:00,
2013-01-18 12:40:00,34.9,19.5,30.64,WNW,299,7.0,9.0,53,0.00,,,0.00,Wunderground v.1.15,2013-01-18 19:40:00,
2013-01-18 12:45:00,35.1,19.2,30.64,WNW,289,6.0,9.0,52,0.00,,,0.00,Wunderground v.1.15,2013-01-18 19:45:00,
2013-01-18 12:55:00,35.2,19.3,30.63,WNW,287,7.0,10.0,52,0.00,,,0.00,Wunderground v.1.15,2013-01-18 19:55:00,
2013-01-18 13:00:00,35.2,19.3,30.63,WNW,292,7.0,11.0,52,0.00,,,0.00,Wunderground v.1.15,2013-01-18 20:00:00,
2013-01-18 13:05:00,35.2,18.9,30.63,West,281,7.0,11.0,51,0.00,,,0.00,Wunderground v.1.15,2013-01-18 20:05:00,
2013-01-18 13:15:00,35.4,19.5,30.63,WNW,302,8.0,9.0,52,0.00,,,0.00,Wunderground v.1.15,2013-01-18 20:15:00,
2013-01-18 13:20:00,35.5,19.6,30.62,WNW,296,8.0,10.0,52,0.00,,,0.00,Wunderground v.1.15,2013-01-18 20:20:00,
2013-01-18 13:25:00,35.6,19.2,30.62,WNW,292,9.0,10.0,51,0.00,,,0.00,Wunderground v.1.15,2013-01-18 20:25:00,
2013-01-18 13:35:00,36.1,19.2,30.61,WNW,296,7.0,9.0,50,0.00,,,0.00,Wunderground v.1.15,2013-01-18 20:35:00,
2013-01-18 13:40:00,36.3,19.4,30.62,WNW,287,7.0,7.0,50,0.00,,,0.00,Wunderground v.1.15,2013-01-18 20:40:00,
2013-01-18 13:45:00,36.4,19.5,30.62,West,279,8.0,9.0,50,0.00,,,0.00,Wunderground v.1.15,2013-01-18 20:45:00,
2013-01-18 13:55:00,36.9,19.5,30.61,WNW,293,6.0,8.0,49,0.00,,,0.00,Wunderground v.1.15,2013-01-18 20:55:00,
2013-01-18 14:00:00,36.9,19.5,30.61,West,277,6.0,6.0,49,0.00,,,0.00,Wunderground v.1.15,2013-01-18 21:00:00,
2013-01-18 14:05:00,37.0,19.6,30.61,WNW,288,6.0,6.0,49,0.00,,,0.00,Wunderground v.1.15,2013-01-18 21:05:00,
2013-01-18 14:10:00,37.1,20.2,30.61,WNW,294,6.0,6.0,50,0.00,,,0.00,Wunderground v.1.15,2013-01-18 21:10:00,
2013-01-18 14:20:00,37.3,19.9,30.61,NW,322,6.0,6.0,49,0.00,,,0.00,Wunderground v.1.15,2013-01-18 21:20:00,
2013-01-18 14:25:00,37.3,19.9,30.61,West,268,6.0,6.0,49,0.00,,,0.00,Wunderground v.1.15,2013-01-18 21:25:00,
2013-01-18 14:30:00,37.7,20.2,30.61,West,275,5.0,11.0,49,0.00,,,0.00,Wunderground v.1.15,2013-01-18 21:30:00,
2013-01-18 14:40:00,37.7,19.3,30.61,WNW,288,6.0,10.0,47,0.00,,,0.00,Wunderground v.1.15,2013-01-18 21:40:00,
2013-01-18 14:45:00,37.9,19.9,30.61,WNW,295,5.0,10.0,48,0.00,,,0.00,Wunderground v.1.15,2013-01-18 21:45:00,
2013-01-18 14:50:00,38.0,20.0,30.61,West,275,5.0,7.0,48,0.00,,,0.00,Wunderground v.1.15,2013-01-18 21:50:00,
2013-01-18 15:00:00,37.5,20.1,30.60,West,273,6.0,8.0,49,0.00,,,0.00,Wunderground v.1.15,2013-01-18 22:00:00,
2013-01-18 15:05:00,37.6,19.7,30.60,WNW,287,6.0,8.0,48,0.00,,,0.00,Wunderground v.1.15,2013-01-18 22:05:00,
2013-01-18 15:10:00,38.0,20.0,30.60,NW,315,5.0,5.0,48,0.00,,,0.00,Wunderground v.1.15,2013-01-18 22:10:00,
2013-01-18 15:20:00,37.7,19.3,30.60,West,279,6.0,6.0,47,0.00,,,0.00,Wunderground v.1.15,2013-01-18 22:20:00,
2013-01-18 15:25:00,37.5,19.6,30.60,WSW,256,6.0,9.0,48,0.00,,,0.00,Wunderground v.1.15,2013-01-18 22:25:00,
2013-01-18 15:30:00,37.1,19.2,30.60,WNW,286,6.0,6.0,48,0.00,,,0.00,Wunderground v.1.15,2013-01-18 22:30:00,
2013-01-18 15:35:00,37.2,19.3,30.59,WSW,247,6.0,6.0,48,0.00,,,0.00,Wunderground v.1.15,2013-01-18 22:35:00,
2013-01-18 15:45:00,37.0,19.1,30.60,West,261,5.0,5.0,48,0.00,,,0.00,Wunderground v.1.15,2013-01-18 22:45:00,
2013-01-18 15:50:00,37.2,19.3,30.60,West,265,5.0,7.0,48,0.00,,,0.00,Wunderground v.1.15,2013-01-18 22:50:00,
2013-01-18 15:55:00,37.2,18.8,30.60,WSW,249,5.0,7.0,47,0.00,,,0.00,Wunderground v.1.15,2013-01-18 22:55:00,
2013-01-18 16:00:00,37.0,19.6,30.60,West,273,5.0,5.0,49,0.00,,,0.00,Wunderground v.1.15,2013-01-18 23:00:00,
2013-01-18 16:10:00,36.9,19.0,30.60,WNW,285,4.0,4.0,48,0.00,,,0.00,Wunderground v.1.15,2013-01-18 23:10:00,
2013-01-18 16:15:00,37.0,19.1,30.59,WNW,285,3.0,4.0,48,0.00,,,0.00,Wunderground v.1.15,2013-01-18 23:15:00,
2013-01-18 16:25:00,37.1,19.2,30.60,West,278,2.0,2.0,48,0.00,,,0.00,Wunderground v.1.15,2013-01-18 23:25:00,
2013-01-18 16:30:00,36.7,19.3,30.59,West,277,2.0,2.0,49,0.00,,,0.00,Wunderground v.1.15,2013-01-18 23:30:00,
2013-01-18 16:35:00,36.1,18.8,30.60,West,278,2.0,2.0,49,0.00,,,0.00,Wunderground v.1.15,2013-01-18 23:35:00,
2013-01-18 16:40:00,35.2,18.4,30.60,West,278,1.0,1.0,50,0.00,,,0.00,Wunderground v.1.15,2013-01-18 23:40:00,
2013-01-18 16:50:00,32.0,17.2,30.60,West,278,1.0,3.0,54,0.00,,,0.00,Wunderground v.1.15,2013-01-18 23:50:00,
2013-01-18 16:55:00,29.5,16.5,30.60,West,278,2.0,3.0,58,0.00,,,0.00,Wunderground v.1.15,2013-01-18 23:55:00,
2013-01-18 17:05:00,26.9,16.3,30.59,West,277,2.0,2.0,64,0.00,,,0.00,Wunderground v.1.15,2013-01-19 00:05:00,
2013-01-18 17:10:00,26.6,16.1,30.60,West,278,2.0,2.0,64,0.00,,,0.00,Wunderground v.1.15,2013-01-19 00:10:00,
2013-01-18 17:15:00,25.8,15.6,30.60,West,278,3.0,3.0,65,0.00,,,0.00,Wunderground v.1.15,2013-01-19 00:15:00,
2013-01-18 17:20:00,25.6,16.2,30.61,West,277,3.0,3.0,67,0.00,,,0.00,Wunderground v.1.15,2013-01-19 00:20:00,
2013-01-18 17:30:00,24.3,14.9,30.61,West,278,3.0,3.0,67,0.00,,,0.00,Wunderground v.1.15,2013-01-19 00:30:00,
2013-01-18 17:35:00,23.6,14.9,30.61,West,278,2.0,3.0,69,0.00,,,0.00,Wunderground v.1.15,2013-01-19 00:35:00,
2013-01-18 17:40:00,22.9,14.6,30.61,West,277,2.0,2.0,70,0.00,,,0.00,Wunderground v.1.15,2013-01-19 00:40:00,
2013-01-18 17:50:00,21.3,13.7,30.62,West,278,2.0,3.0,72,0.00,,,0.00,Wunderground v.1.15,2013-01-19 00:50:00,
2013-01-18 17:55:00,21.0,13.7,30.62,West,277,3.0,3.0,73,0.00,,,0.00,Wunderground v.1.15,2013-01-19 00:55:00,
2013-01-18 18:00:00,21.0,13.7,30.62,West,278,3.0,3.0,73,0.00,,,0.00,Wunderground v.1.15,2013-01-19 01:00:00,
2013-01-18 18:05:00,20.7,13.4,30.62,West,278,2.0,3.0,73,0.00,,,0.00,Wunderground v.1.15,2013-01-19 01:05:00,
2013-01-18 18:15:00,20.2,13.5,30.62,West,277,3.0,4.0,75,0.00,,,0.00,Wunderground v.1.15,2013-01-19 01:15:00,
2013-01-18 18:20:00,20.3,13.6,30.63,West,277,3.0,3.0,75,0.00,,,0.00,Wunderground v.1.15,2013-01-19 01:20:00,
2013-01-18 18:25:00,20.3,13.6,30.63,West,278,3.0,3.0,75,0.00,,,0.00,Wunderground v.1.15,2013-01-19 01:25:00,
2013-01-18 18:35:00,20.6,14.5,30.62,West,278,4.0,4.0,77,0.00,,,0.00,Wunderground v.1.15,2013-01-19 01:35:00,
2013-01-18 18:40:00,20.7,13.7,30.63,West,278,3.0,3.0,74,0.00,,,0.00,Wunderground v.1.15,2013-01-19 01:40:00,
2013-01-18 18:45:00,20.2,13.5,30.63,West,278,2.0,3.0,75,0.00,,,0.00,Wunderground v.1.15,2013-01-19 01:45:00,
2013-01-18 18:55:00,19.7,12.8,30.63,West,278,0.0,1.0,74,0.00,,,0.00,Wunderground v.1.15,2013-01-19 01:55:00,
2013-01-18 19:00:00,19.0,11.8,30.63,West,278,0.0,0.0,73,0.00,,,0.00,Wunderground v.1.15,2013-01-19 02:00:00,
2013-01-18 19:05:00,17.9,11.0,30.63,West,278,0.0,0.0,74,0.00,,,0.00,Wunderground v.1.15,2013-01-19 02:05:00,
2013-01-18 19:10:00,17.4,11.7,30.63,West,277,0.0,0.0,78,0.00,,,0.00,Wunderground v.1.15,2013-01-19 02:10:00,
2013-01-18 19:20:00,17.3,11.9,30.63,West,277,1.0,2.0,79,0.00,,,0.00,Wunderground v.1.15,2013-01-19 02:20:00,
2013-01-18 19:25:00,17.9,12.8,30.63,West,278,2.0,2.0,80,0.00,,,0.00,Wunderground v.1.15,2013-01-19 02:25:00,
2013-01-18 19:30:00,17.7,12.0,30.63,West,278,1.0,1.0,78,0.00,,,0.00,Wunderground v.1.15,2013-01-19 02:30:00,
2013-01-18 19:40:00,17.9,12.5,30.63,West,278,1.0,1.0,79,0.00,,,0.00,Wunderground v.1.15,2013-01-19 02:40:00,
2013-01-18 19:45:00,17.8,12.4,30.63,West,278,0.0,1.0,79,0.00,,,0.00,Wunderground v.1.15,2013-01-19 02:45:00,
2013-01-18 19:50:00,17.2,11.5,30.64,West,277,0.0,0.0,78,0.00,,,0.00,Wunderground v.1.15,2013-01-19 02:50:00,
2013-01-18 20:00:00,16.1,10.7,30.64,West,277,0.0,0.0,79,0.00,,,0.00,Wunderground v.1.15,2013-01-19 03:00:00,
2013-01-18 20:05:00,15.7,10.6,30.64,West,278,0.0,1.0,80,0.00,,,0.00,Wunderground v.1.15,2013-01-19 03:05:00,
2013-01-18 20:10:00,15.5,10.4,30.64,West,278,1.0,1.0,80,0.00,,,0.00,Wunderground v.1.15,2013-01-19 03:10:00,
2013-01-18 20:15:00,15.2,10.1,30.64,West,278,1.0,1.0,80,0.00,,,0.00,Wunderground v.1.15,2013-01-19 03:15:00,
2013-01-18 20:25:00,12.7,7.7,30.63,West,278,2.0,2.0,80,0.00,,,0.00,Wunderground v.1.15,2013-01-19 03:25:00,
2013-01-18 20:30:00,12.5,8.0,30.64,West,278,1.0,1.0,82,0.00,,,0.00,Wunderground v.1.15,2013-01-19 03:30:00,
2013-01-18 20:40:00,13.6,9.9,30.64,West,278,2.0,2.0,85,0.00,,,0.00,Wunderground v.1.15,2013-01-19 03:40:00,
2013-01-18 20:45:00,13.9,10.0,30.64,West,278,3.0,3.0,84,0.00,,,0.00,Wunderground v.1.15,2013-01-19 03:45:00,
2013-01-18 20:50:00,13.4,8.9,30.64,West,278,3.0,3.0,82,0.00,,,0.00,Wunderground v.1.15,2013-01-19 03:50:00,
2013-01-18 21:00:00,14.3,10.6,30.64,West,277,2.0,2.0,85,0.00,,,0.00,Wunderground v.1.15,2013-01-19 04:00:00,
2013-01-18 21:05:00,13.7,9.2,30.64,West,277,2.0,2.0,82,0.00,,,0.00,Wunderground v.1.15,2013-01-19 04:05:00,
2013-01-18 21:10:00,13.3,9.1,30.64,West,278,2.0,2.0,83,0.00,,,0.00,Wunderground v.1.15,2013-01-19 04:10:00,
2013-01-18 21:20:00,12.9,9.0,30.65,West,278,2.0,2.0,84,0.00,,,0.00,Wunderground v.1.15,2013-01-19 04:20:00,
2013-01-18 21:25:00,13.0,9.1,30.64,West,278,2.0,2.0,84,0.00,,,0.00,Wunderground v.1.15,2013-01-19 04:25:00,
2013-01-18 21:30:00,13.0,9.1,30.64,West,278,2.0,2.0,84,0.00,,,0.00,Wunderground v.1.15,2013-01-19 04:30:00,
2013-01-18 21:40:00,11.5,7.3,30.64,West,277,2.0,3.0,83,0.00,,,0.00,Wunderground v.1.15,2013-01-19 04:40:00,
2013-01-18 21:45:00,11.7,8.1,30.64,West,277,2.0,3.0,85,0.00,,,0.00,Wunderground v.1.15,2013-01-19 04:45:00,
2013-01-18 21:50:00,10.9,6.8,30.64,West,278,2.0,2.0,83,0.00,,,0.00,Wunderground v.1.15,2013-01-19 04:50:00,
2013-01-18 22:05:00,9.6,5.7,30.64,West,278,1.0,2.0,84,0.00,,,0.00,Wunderground v.1.15,2013-01-19 05:05:00,
2013-01-18 22:10:00,8.9,5.1,30.64,West,278,2.0,2.0,84,0.00,,,0.00,Wunderground v.1.15,2013-01-19 05:10:00,
2013-01-18 22:15:00,9.2,5.6,30.64,West,278,2.0,3.0,85,0.00,,,0.00,Wunderground v.1.15,2013-01-19 05:15:00,
2013-01-18 22:20:00,10.0,6.6,30.64,West,278,2.0,2.0,86,0.00,,,0.00,Wunderground v.1.15,2013-01-19 05:20:00,
2013-01-18 22:25:00,10.3,6.9,30.64,West,278,2.0,2.0,86,0.00,,,0.00,Wunderground v.1.15,2013-01-19 05:25:00,
2013-01-18 22:30:00,10.3,6.9,30.64,West,277,2.0,3.0,86,0.00,,,0.00,Wunderground v.1.15,2013-01-19 05:30:00,
2013-01-18 22:40:00,9.9,6.3,30.64,West,277,2.0,2.0,85,0.00,,,0.00,Wunderground v.1.15,2013-01-19 05:40:00,
2013-01-18 22:45:00,9.7,6.4,30.64,West,278,1.0,2.0,86,0.00,,,0.00,Wunderground v.1.15,2013-01-19 05:45:00,
2013-01-18 22:55:00,8.6,4.8,30.64,West,278,1.0,2.0,84,0.00,,,0.00,Wunderground v.1.15,2013-01-19 05:55:00,
2013-01-18 23:00:00,9.2,5.9,30.64,West,278,2.0,2.0,86,0.00,,,0.00,Wunderground v.1.15,2013-01-19 06:00:00,
2013-01-18 23:05:00,9.6,6.5,30.64,West,278,2.0,2.0,87,0.00,,,0.00,Wunderground v.1.15,2013-01-19 06:05:00,
2013-01-18 23:10:00,8.5,4.9,30.64,West,278,1.0,2.0,85,0.00,,,0.00,Wunderground v.1.15,2013-01-19 06:10:00,
2013-01-18 23:20:00,8.4,5.1,30.64,West,277,2.0,2.0,86,0.00,,,0.00,Wunderground v.1.15,2013-01-19 06:20:00,
2013-01-18 23:25:00,8.5,5.2,30.64,West,278,2.0,2.0,86,0.00,,,0.00,Wunderground v.1.15,2013-01-19 06:25:00,
2013-01-18 23:30:00,8.8,5.7,30.64,West,277,2.0,2.0,87,0.00,,,0.00,Wunderground v.1.15,2013-01-19 06:30:00,
2013-01-18 23:40:00,8.2,4.9,30.64,West,277,2.0,2.0,86,0.00,,,0.00,Wunderground v.1.15,2013-01-19 06:40:00,
2013-01-18 23:45:00,7.4,3.8,30.64,West,278,1.0,2.0,85,0.00,,,0.00,Wunderground v.1.15,2013-01-19 06:45:00,
2013-01-18 23:50:00,6.8,3.2,30.64,West,278,1.0,2.0,85,0.00,,,0.00,Wunderground v.1.15,2013-01-19 06:50:00,